Погода в Таунусштайне

Германия     50°08′24″N   8°08′45″E
темп.,
°C
ветер,
м/с
пор.,
м/с
влажн.,
%
обл.,
%
осадки,
мм/ч
давл.,
гПа
погр.,
м
15 мая, сб
сб1523:00+7юз27955 0.0 1010150
02:00+5ю22963 0.0 100926
05:00+5ю359997 0.0 1009115
08:00+7ю3796100 0.3 1008579
11:00+9ююз4686100 0.3 1008838
14:00+10юз4787100 2.6 1007897
17:00+8ююз4892100 1.3 1006996
20:00+8ююз478782 1.3 1005752
16 мая, вс
вс1623:00+7ю379871 0.4 1005254
02:00+7ююз359854 0.6 1006197
05:00+6ююз259995 0.6 1005169
08:00+9ю379579 1.1 1005544
11:00+8юз2798100 3.9 1005714
14:00+9ююз369134 5.8 1004540
17:00+12юз587785 0.7 10021449
20:00+10зюз3792100 2.1 1003421
17 мая, пн
пн1723:00+6ююз239669 0.3 100557
02:00+7ююз2998100 0.6 1004333
05:00+8з41097100 5.9 1004841
08:00+8юз51196100 12.2 10051130
11:00+9зюз51193100 0.8 10061352
14:00+8юз51193100 1.8 10071049
17:00+10юз6119070 0.8 10071221
20:00+10зюз5118954 1.4 1007774
18 мая, вт
вт1823:00+7ююз3797100 0.1 1009220
02:00+8юз31096100 0.7 1009467
05:00+7юз41096100 0.2 1009595
08:00+7зюз51095100 0.9 10101087
11:00+7зюз61195100 1.1 10121028
14:00+11зюз598692 2.1 10131332
17:00+11з697845 1.2 10141304
20:00+9з4991100 2.2 1015556
19 мая, ср
ср1923:00+6юз239672 0.4 101644
02:00+5зюз27978 0.4 1017165
05:00+3зюз229641 0.0 101751
08:00+7зюз399287 0.0 1018440
11:00+11з696199 0.0 10191496
14:00+12зюз6959100 0.6 10181826
17:00+11зсз6977100 1.1 10191154
20:00+7з41092100 1.6 10201004